Time,TemperatureF,DewpointF,PressureIn,WindDirection,WindDirectionDegrees,WindSpeedMPH,WindSpeedGustMPH,Humidity,HourlyPrecipIn,Conditions,Clouds,dailyrainin,SoftwareType,DateUTC
2013-01-12 00:00:00,61.0,61.0,30.18,SE,135,6.0,9.0,100,0.05,,,-99.99,WeatherLink 5.4,2013-01-12 05:00:00,
2013-01-12 00:30:00,60.9,60.9,30.17,SE,135,7.0,11.0,100,0.03,,,-99.99,WeatherLink 5.4,2013-01-12 05:30:00,
2013-01-12 01:00:00,60.9,60.9,30.17,SE,135,7.0,9.0,100,0.01,,,-99.99,WeatherLink 5.4,2013-01-12 06:00:00,
2013-01-12 01:30:00,60.9,60.9,30.17,SE,135,7.0,10.0,100,0.02,,,-99.99,WeatherLink 5.4,2013-01-12 06:30:00,
2013-01-12 02:00:00,61.0,61.0,30.17,SE,135,5.0,11.0,100,0.02,,,-99.99,WeatherLink 5.4,2013-01-12 07:00:00,
2013-01-12 02:30:00,61.1,61.1,30.18,SE,135,5.0,11.0,100,0.00,,,-99.99,WeatherLink 5.4,2013-01-12 07:30:00,
2013-01-12 03:00:00,61.3,61.3,30.18,SE,135,5.0,8.0,100,0.00,,,-99.99,WeatherLink 5.4,2013-01-12 08:00:00,
2013-01-12 03:30:00,61.4,61.4,30.18,SE,135,4.0,8.0,100,0.00,,,-99.99,WeatherLink 5.4,2013-01-12 08:30:00,
2013-01-12 04:00:00,61.6,61.6,30.17,SE,135,4.0,7.0,100,0.00,,,-99.99,WeatherLink 5.4,2013-01-12 09:00:00,
2013-01-12 04:30:00,62.0,62.0,30.16,SE,135,3.0,5.0,100,0.00,,,-99.99,WeatherLink 5.4,2013-01-12 09:30:00,
2013-01-12 05:00:00,62.1,62.1,30.16,SE,135,3.0,6.0,100,0.00,,,-99.99,WeatherLink 5.4,2013-01-12 10:00:00,
2013-01-12 05:30:00,61.9,61.9,30.16,SE,135,3.0,5.0,100,0.00,,,-99.99,WeatherLink 5.4,2013-01-12 10:30:00,
2013-01-12 06:00:00,61.6,61.6,30.16,SE,135,2.0,5.0,100,0.00,,,-99.99,WeatherLink 5.4,2013-01-12 11:00:00,
2013-01-12 06:30:00,61.4,61.4,30.16,SE,135,4.0,6.0,100,0.00,,,-99.99,WeatherLink 5.4,2013-01-12 11:30:00,
2013-01-12 07:00:00,61.6,61.6,30.17,SE,135,3.0,6.0,100,0.00,,,-99.99,WeatherLink 5.4,2013-01-12 12:00:00,
2013-01-12 07:30:00,61.9,61.9,30.18,ESE,112,0.0,5.0,100,0.00,,,-99.99,WeatherLink 5.4,2013-01-12 12:30:00,
2013-01-12 08:00:00,62.3,62.3,30.18,ESE,112,1.0,4.0,100,0.00,,,-99.99,WeatherLink 5.4,2013-01-12 13:00:00,
2013-01-12 08:06:00,62.4,62.4,30.18,ESE,121,0.0,1.0,100,0.00,,OVC,0.04,VWS V12.07,2013-01-12 13:06:00,
2013-01-12 08:30:00,62.6,62.6,30.19,ESE,112,0.0,5.0,100,0.00,,,-99.99,WeatherLink 5.4,2013-01-12 13:30:00,
2013-01-12 09:00:00,63.2,63.2,30.19,ESE,112,0.0,2.0,100,0.00,,,-99.99,WeatherLink 5.4,2013-01-12 14:00:00,
2013-01-12 09:30:00,63.3,63.3,30.20,ESE,112,1.0,4.0,100,0.00,,,-99.99,WeatherLink 5.4,2013-01-12 14:30:00,
2013-01-12 10:00:00,62.7,62.7,30.20,ESE,112,1.0,6.0,100,0.00,,,-99.99,WeatherLink 5.4,2013-01-12 15:00:00,
2013-01-12 10:30:00,63.3,63.3,30.20,ESE,112,0.0,3.0,100,0.00,,,-99.99,WeatherLink 5.4,2013-01-12 15:30:00,
2013-01-12 11:00:00,62.9,62.9,30.19,ESE,112,2.0,5.0,100,0.00,,,-99.99,WeatherLink 5.4,2013-01-12 16:00:00,
2013-01-12 11:30:00,62.9,62.9,30.19,SE,135,5.0,8.0,100,0.00,,,-99.99,WeatherLink 5.4,2013-01-12 16:30:00,
2013-01-12 12:00:00,63.4,63.4,30.17,SE,135,5.0,8.0,100,0.00,,,-99.99,WeatherLink 5.4,2013-01-12 17:00:00,
2013-01-12 12:30:00,64.3,63.4,30.16,SE,135,4.0,8.0,97,0.00,,,-99.99,WeatherLink 5.4,2013-01-12 17:30:00,
2013-01-12 13:00:00,66.1,63.7,30.15,SE,135,4.0,9.0,92,0.00,,,-99.99,WeatherLink 5.4,2013-01-12 18:00:00,
2013-01-12 13:30:00,66.7,62.4,30.14,SE,135,6.0,11.0,86,0.00,,,-99.99,WeatherLink 5.4,2013-01-12 18:30:00,
2013-01-12 14:00:00,65.8,61.8,30.13,SE,135,7.0,14.0,87,0.00,,,-99.99,WeatherLink 5.4,2013-01-12 19:00:00,
2013-01-12 14:30:00,65.8,61.2,30.12,SE,135,6.0,11.0,85,0.00,,,-99.99,WeatherLink 5.4,2013-01-12 19:30:00,
2013-01-12 15:00:00,65.6,61.0,30.13,SE,135,7.0,12.0,85,0.00,,,-99.99,WeatherLink 5.4,2013-01-12 20:00:00,
2013-01-12 15:30:00,65.0,61.0,30.13,SE,135,9.0,13.0,87,0.00,,,-99.99,WeatherLink 5.4,2013-01-12 20:30:00,
2013-01-12 16:00:00,64.5,61.2,30.13,SE,135,7.0,14.0,89,0.00,,,-99.99,WeatherLink 5.4,2013-01-12 21:00:00,
2013-01-12 16:30:00,64.7,61.7,30.12,SE,135,6.0,11.0,90,0.00,,,-99.99,WeatherLink 5.4,2013-01-12 21:30:00,
2013-01-12 17:00:00,64.3,61.0,30.12,SE,135,8.0,12.0,89,0.00,,,-99.99,WeatherLink 5.4,2013-01-12 22:00:00,
2013-01-12 17:30:00,63.6,60.6,30.13,SE,135,8.0,13.0,90,0.00,,,-99.99,WeatherLink 5.4,2013-01-12 22:30:00,
2013-01-12 18:00:00,62.8,60.7,30.12,SE,135,6.0,11.0,93,0.00,,,-99.99,WeatherLink 5.4,2013-01-12 23:00:00,
2013-01-12 18:30:00,62.1,60.7,30.13,SE,135,6.0,10.0,95,0.00,,,-99.99,WeatherLink 5.4,2013-01-12 23:30:00,
2013-01-12 19:00:00,62.2,60.5,30.12,SE,135,7.0,14.0,94,0.00,,,-99.99,WeatherLink 5.4,2013-01-13 00:00:00,
2013-01-12 19:06:00,62.0,60.3,30.12,SE,142,7.0,11.0,94,0.00,,BKN,0.04,VWS V12.07,2013-01-13 00:06:00,
2013-01-12 19:30:00,62.0,60.6,30.12,SE,135,10.0,18.0,95,0.00,,,-99.99,WeatherLink 5.4,2013-01-13 00:30:00,
2013-01-12 20:00:00,62.1,60.7,30.12,SE,135,11.0,19.0,95,0.00,,,-99.99,WeatherLink 5.4,2013-01-13 01:00:00,
2013-01-12 20:30:00,61.9,60.5,30.11,SE,135,11.0,19.0,95,0.00,,,-99.99,WeatherLink 5.4,2013-01-13 01:30:00,
2013-01-12 21:00:00,61.8,60.4,30.11,SE,135,10.0,20.0,95,0.00,,,-99.99,WeatherLink 5.4,2013-01-13 02:00:00,
2013-01-12 21:30:00,61.5,60.1,30.12,SE,135,9.0,13.0,95,0.00,,,-99.99,WeatherLink 5.4,2013-01-13 02:30:00,
2013-01-12 22:00:00,61.4,60.2,30.11,SE,135,9.0,16.0,96,0.00,,,-99.99,WeatherLink 5.4,2013-01-13 03:00:00,
2013-01-12 22:30:00,61.4,60.0,30.10,SE,135,10.0,20.0,95,0.00,,,-99.99,WeatherLink 5.4,2013-01-13 03:30:00,
2013-01-12 23:00:00,61.4,59.7,30.11,SE,135,9.0,17.0,94,0.00,,,-99.99,WeatherLink 5.4,2013-01-13 04:00:00,
2013-01-12 23:30:00,61.2,59.5,30.11,SE,135,8.0,16.0,94,0.00,,,-99.99,WeatherLink 5.4,2013-01-13 04:30:00,